Location: ???????
(48.4671°N, 33.0187°E)
Time: 19:09:29
(UTC+00:00)

Daily predictions for brighter satellites

Satellite Brightness Start Highest point End
(mag) Time Altitude Azimuth Time Altitude Azimuth Time Altitude Azimuth
STARLINK-1115 3.9 18:09:56 10° WNW 18:14:02 61° SSW 18:18:06 10° SE
Meteor 1-4 Rocket 2.7 18:11:37 10° S 18:14:56 47° E 18:18:17 10° NNE
STARLINK-1126 4.1 18:11:59 10° WNW 18:16:04 59° NNE 18:20:11 10° E
STARLINK-1201 3.6 18:13:16 10° SW 18:17:22 66° SSE 18:21:29 10° ENE
Spot 2 Rocket 3.9 18:13:57 10° SE 18:18:49 52° ENE 18:23:43 10° N
STARLINK-1076 4.0 18:14:55 10° WNW 18:18:59 57° SSW 18:23:03 10° SE
ASTEX 1 4.4 18:15:54 10° SSW 18:20:39 49° W 18:25:26 10° NNW
Cosmos 1975 2.9 18:17:01 10° N 18:21:06 88° W 18:25:07 10° S
STARLINK-1082 4.0 18:17:07 10° WNW 18:21:15 62° NNE 18:25:22 10° E
STARLINK-1206 3.6 18:18:13 10° SW 18:22:19 70° SSE 18:26:28 10° ENE
Okean 1-7 3.2 18:19:29 10° SSW 18:23:45 78° W 18:28:03 10° N
Cosmos 1300 Rocket 4.2 18:19:30 10° N 18:23:45 41° ENE 18:27:58 10° SE
STARLINK-1092 4.0 18:19:52 10° WNW 18:23:55 53° SW 18:27:57 10° SE
Meteor 1-19 Rocket 4.3 18:18:39 10° S 18:24:16 80° E 18:30:06 10° NNE
Cosmos 676 Rocket 4.1 18:19:07 10° NNW 18:24:23 78° ENE 18:29:40 10° SSE
STARLINK-1100 4.0 18:22:08 10° WNW 18:26:16 64° NNE 18:30:23 10° ESE
Cosmos 1515 3.7 18:23:24 10° S 18:27:13 86° E 18:31:04 10° N
STARLINK-1205 3.6 18:23:11 10° SW 18:27:18 75° SSE 18:31:28 10° ENE
MOS 1 Rocket 4.2 18:22:58 10° N 18:27:18 49° WNW 18:31:28 10° SW
Okean 1 4.1 18:24:39 10° SSW 18:28:38 56° WNW 18:32:40 10° N
NOSS 2-3 (E) 3.7 18:24:29 10° SW 18:28:47 87° SE 18:33:59 10° NE
STARLINK-1080 4.1 18:24:56 10° WNW 18:28:57 49° SW 18:32:56 10° SE
STARLINK-1083 3.9 18:27:05 10° WNW 18:31:14 67° NNE 18:35:22 10° ESE
STARLINK-1218 3.6 18:28:08 10° WSW 18:32:17 80° SSE 18:36:26 10° ENE
STARLINK-1228 4.1 18:28:56 10° W 18:32:17 50° NNW 18:35:39 10° ENE
Cosmos 2056 Rocket 3.5 18:27:21 10° SSW 18:32:27 87° ESE 18:37:37 10° NNE
Intercosmos 24 4.2 18:29:39 10° N 18:33:14 44° ENE 18:36:39 10° SSE
STARLINK-1090 4.2 18:29:54 10° WNW 18:33:52 45° SW 18:37:42 11° SE
Cosmos 1437 Rocket 4.1 18:32:48 10° SE 18:35:47 22° E 18:38:48 10° NE
STARLINK-1125 3.8 18:32:04 10° WNW 18:36:13 71° NNE 18:40:21 10° ESE
STARLINK-1254 3.6 18:33:07 10° WSW 18:37:15 84° SSE 18:41:25 10° ENE
STARLINK-1089 4.3 18:34:54 10° WNW 18:38:50 42° SW 18:42:28 12° SSE
MetOp-B 4.2 18:34:18 10° SSE 18:39:39 89° W 18:45:03 10° NNW
Cosmos 1544 3.8 18:36:26 10° NNW 18:40:00 53° W 18:43:31 10° S
STARLINK-1109 3.8 18:37:04 10° WNW 18:41:13 74° NNE 18:45:21 10° ESE
STARLINK-1231 3.6 18:38:04 10° WSW 18:42:13 89° SSE 18:46:23 10° ENE
SAR-Lupe-2 3.8 18:39:18 10° NNE 18:42:49 48° E 18:46:19 10° S
SL-8 R/B 3.7 18:38:06 10° W 18:42:55 89° N 18:47:45 10° E
STARLINK-1107 4.4 18:39:54 10° WNW 18:43:46 39° SW 18:47:14 12° SSE
SPOT 5 3.7 18:39:56 11° SE 18:44:38 42° ENE 18:49:39 10° N
STARLINK-1246 4.3 18:41:06 10° SSW 18:44:46 31° SE 18:48:26 10° ENE
COSMOS 2406 3.7 18:39:16 10° NW 18:44:55 58° WSW 18:50:32 10° S
STARLINK-1091 3.7 18:42:01 10° WNW 18:46:11 78° NNE 18:50:19 10° ESE
STARLINK-1232 3.7 18:43:04 10° WSW 18:47:13 87° NNW 18:51:23 10° ENE
Landsat 7 3.8 18:44:07 10° SSE 18:48:52 78° ENE 18:53:39 10° NNW
NOSS 2-3 (D) 4.0 18:44:35 10° SW 18:48:55 72° NW 18:54:09 10° NE
STARLINK-1224 4.2 18:45:58 10° SSW 18:49:42 33° SE 18:53:26 10° ENE
Cosmos 2221 Rocket 3.6 18:45:22 10° S 18:49:51 73° E 18:54:25 10° NNE
Meteor 2-4 Rocket 3.6 18:44:40 10° S 18:50:02 82° E 18:55:25 10° NNE
STARLINK-1072 3.7 18:47:01 10° WNW 18:51:11 82° NNE 18:55:06 11° ESE
STARLINK-1208 3.7 18:48:03 10° WSW 18:52:12 82° NNW 18:56:22 10° ENE
USA 245 2.7 18:49:38 11° SSE 18:52:56 83° W 18:55:43 10° NNW
Aureole 2 Rocket 4.1 18:52:33 13° ESE 18:53:10 14° ESE 18:54:51 10° ENE
USA 215 4.2 18:47:28 10° E 18:53:41 48° NNE 18:59:54 10° WNW
STARLINK-1225 4.1 18:50:51 10° SSW 18:54:38 36° SE 18:58:27 10° ENE
Meteor 1-12 Rocket 4.3 18:49:40 10° NNW 18:55:21 89° E 19:01:02 10° S
STARLINK-1096 3.6 18:52:00 10° WNW 18:56:10 86° NNE 18:59:53 13° ESE
NOSS 3 (A) 4.3 18:54:11 10° SW 18:56:51 84° SE 18:59:52 10° NE
STARLINK-1271 3.8 18:53:02 10° WSW 18:57:11 78° NNW 19:01:20 10° ENE
STARLINK-1230 4.0 18:55:45 10° SSW 18:59:36 38° SE 19:03:27 10° ENE
Cosmos 332 Rocket 4.2 18:55:07 10° S 18:59:44 43° ESE 19:04:22 10° NE
Resurs 01 Rocket 3.1 18:56:26 10° SSW 19:00:29 34° W 19:04:34 10° NNW
STARLINK-1079 3.6 18:56:59 10° WNW 19:01:10 90° SSW 19:04:41 14° ESE
BREEZE-M DEB (TANK) 3.1 18:55:49 10° WSW 19:01:34 90° S 19:05:01 10° ENE
Meteor 1-13 Rocket 4.2 18:56:31 10° S 19:02:03 69° E 19:07:45 10° NNE
STARLINK-1154 3.8 18:58:00 10° WSW 19:02:08 75° NNW 19:06:18 10° ENE
Cosmos 1452 Rocket 3.6 18:57:59 10° S 19:03:10 61° ESE 19:08:24 10° NNE
STARLINK-1243 4.0 19:00:39 10° SSW 19:04:33 41° SE 19:08:28 10° ENE
Cosmos 2297 4.5 19:01:22 12° SSE 19:05:57 32° ESE 19:10:58 10° NE
STARLINK-1116 3.6 19:01:57 10° WNW 19:06:07 85° SSW 19:09:27 15° ESE
Cosmos 2279 Rocket 4.0 19:00:04 10° N 19:06:21 86° W 19:12:28 11° S
Cosmos 1420 Rocket 4.0 19:01:45 10° SSW 19:06:58 90° WNW 19:12:11 10° NNE
STARLINK-1197 3.9 19:02:59 10° WSW 19:07:07 71° NNW 19:11:17 10° ENE
CENTAUR R/B 4.3 19:00:13 10° NW 19:07:08 36° NNE 19:14:51 10° E
STARLINK-1103 4.4 19:04:12 10° WNW 19:08:15 50° NNE 19:12:18 10° E
NOSS 3-1 (A) 4.2 19:03:47 10° WSW 19:09:20 55° NW 19:15:53 10° NE
STARLINK-1236 3.9 19:05:35 10° SW 19:09:32 45° SE 19:13:29 10° ENE
STARLINK-1198 4.0 19:08:00 10° WSW 19:12:08 68° NNW 19:16:17 10° ENE
BREEZE-M DEB 3.6 19:10:59 18° S 19:12:13 24° SE 19:16:11 10° ENE
Okean 2 Rocket 3.6 19:08:49 10° NNW 19:13:11 56° W 19:17:27 10° S
STARLINK-1101 4.4 19:09:11 10° WNW 19:13:15 51° NNE 19:17:18 10° E
Abrixas rocket 1.8 19:12:30 10° W 19:15:27 89° S 19:17:50 15° E
Cosmos 2082 Rocket 2.3 19:09:51 10° NNW 19:15:36 80° WSW 19:20:07 17° SSE
STARLINK-1094 3.6 19:11:57 10° WNW 19:16:06 76° SSW 19:19:01 19° SE
ERBS 2.2 19:13:03 10° SW 19:16:20 84° NW 19:19:41 10° NE
STARLINK-1199 4.1 19:13:00 10° WSW 19:17:07 65° NNW 19:21:15 10° ENE
Cosmos 1833 Rocket 3.3 19:12:23 10° NW 19:17:46 49° WSW 19:22:36 13° S
STARLINK-1102 4.3 19:14:11 10° WNW 19:18:15 53° NNE 19:22:19 10° E
STARLINK-1269 3.7 19:15:23 10° SW 19:19:25 52° SE 19:23:27 10° ENE
STARLINK-1117 3.6 19:16:55 10° WNW 19:21:04 71° SSW 19:23:47 20° SE
STARLINK-1210 4.1 19:17:59 10° W 19:22:06 62° NNW 19:26:14 10° ENE
Okean 1 Rocket 3.2 19:18:46 10° N 19:23:13 61° ENE 19:26:08 21° SSE
STARLINK-1111 4.3 19:19:10 10° WNW 19:23:15 54° NNE 19:27:19 10° E
STARLINK-1200 3.6 19:20:21 10° SW 19:24:24 56° SE 19:28:28 10° ENE
STARLINK-1078 3.6 19:21:55 10° WNW 19:26:03 67° SSW 19:28:35 22° SE
Cosmos 1378 4.1 19:24:53 22° SE 19:26:27 31° E 19:29:48 10° NNE
Cosmos 2151 Rocket 4.1 19:22:27 10° NNW 19:26:56 59° W 19:30:45 14° S
STARLINK-1219 4.2 19:22:59 10° W 19:27:05 60° NNW 19:31:12 10° ENE
STARLINK-1073 4.2 19:24:08 10° WNW 19:28:14 56° NNE 19:32:19 10° E
SL-4 R/B 2.5 19:25:56 10° NW 19:28:48 32° WSW 19:30:14 20° SSW
STARLINK-1192 3.6 19:25:18 10° SW 19:29:22 60° SSE 19:33:28 10° ENE
Cosmos 1943 Rocket 3.4 19:27:59 18° SE 19:30:06 23° ESE 19:34:21 10° NE
Cosmos 2369 Rocket 3.8 19:28:55 15° ESE 19:30:33 17° E 19:34:06 10° ENE
STARLINK-1108 3.7 19:26:54 10° WNW 19:31:00 62° SSW 19:33:22 24° SE
BREEZE M DEB (TANK) 2.6 19:26:50 10° SW 19:31:50 49° SSE 19:33:49 13° E
STARLINK-1211 4.3 19:27:59 10° W 19:32:05 58° NNW 19:36:11 10° ENE
Aureole 2 4.4 19:29:12 10° NNW 19:32:29 58° ENE 19:33:48 29° SE
STARLINK-1121 4.1 19:29:08 10° WNW 19:33:15 59° NNE 19:37:10 11° E
SPOT 1/Viking Rocket 4.1 19:28:52 13° S 19:33:26 52° W 19:38:29 10° NNW
Terra 1.8 19:30:23 20° SSE 19:33:38 78° ENE 19:38:24 10° NNW
STARLINK-1244 3.5 19:30:15 10° SW 19:34:20 64° SSE 19:38:27 10° ENE
Cosmos 1741 Rocket 4.1 19:30:20 10° NNW 19:35:33 71° WSW 19:39:10 20° S
STARLINK-1071 3.8 19:31:53 10° WNW 19:35:58 58° SSW 19:38:09 25° SE
NOSS 2-2 (C) 4.1 19:36:18 25° SE 19:36:41 25° ESE 19:39:53 10° ENE
SeaSat 1 3.6 19:32:42 10° NE 19:36:47 25° ESE 19:38:24 21° SE
STARLINK-1245 4.4 19:33:00 10° W 19:37:05 56° NNW 19:41:10 10° ENE
STARLINK-1106 4.1 19:34:06 10° WNW 19:38:13 61° NNE 19:41:55 12° E
ATLAS 2AS CENTAUR R/B 4.5 19:36:31 14° ESE 19:38:45 16° ESE 19:43:10 10° ENE
STARLINK-1138 3.5 19:35:11 10° SW 19:39:17 69° SSE 19:43:25 10° ENE
STARLINK-1110 3.8 19:35:56 10° WNW 19:39:59 55° SW 19:42:01 27° SSE
Cosmos 1066 Rocket 4.1 19:35:38 15° S 19:40:07 75° E 19:45:29 10° NNE
Cosmos 1092 Rocket 4.3 19:37:08 20° SSE 19:41:10 49° E 19:47:05 10° NNE
ISS -3.2 19:38:26 10° WNW 19:41:39 41° SSW 19:42:40 31° SSE
STARLINK-1233 4.4 19:38:00 10° W 19:42:04 54° NNW 19:46:09 10° ENE
NOSS 3-2 (A) 4.4 19:35:13 10° NW 19:42:26 60° NE 19:49:43 14° ESE
STARLINK-1112 4.0 19:39:05 10° WNW 19:43:13 63° NNE 19:46:43 14° E
Cosmos 1805 3.4 19:39:37 10° N 19:43:31 59° ENE 19:45:23 28° SSE
ERS-1 Rocket 3.4 19:40:08 16° S 19:44:00 56° W 19:48:59 10° NNW
CARTOSAT-1 4.1 19:41:07 18° S 19:44:11 54° W 19:48:26 10° NNW
STARLINK-1143 3.5 19:40:08 10° SW 19:44:15 73° SSE 19:48:24 10° ENE
STARLINK-1124 3.9 19:41:51 10° WNW 19:45:52 50° SW 19:47:41 28° SSE
Cosmos 371 Rocket 3.9 19:41:13 10° SW 19:46:00 59° WNW 19:50:51 10° NNE
Cosmos 1461 2.9 19:43:36 14° SSW 19:46:59 58° ESE 19:51:17 10° NE
Lacrosse 5 2.5 19:42:17 10° WNW 19:47:02 42° SW 19:49:40 23° S
STARLINK-1204 4.5 19:43:01 10° W 19:47:05 52° NNW 19:51:09 10° ENE
STARLINK-1128 3.9 19:44:05 10° WNW 19:48:14 66° NNE 19:51:31 16° E
Crew Dragon 1.6 19:46:25 10° W 19:47:56 25° SW 19:47:56 25° SW
deb Kosmos-1763 3.9 19:45:12 10° NNW 19:48:49 83° WSW 19:50:22 32° SSE
STARLINK-1241 3.5 19:45:07 10° WSW 19:49:15 78° SSE 19:53:24 10° ENE
Cosmos 2278 Rocket 3.4 19:45:01 10° SW 19:50:25 43° NW 19:55:51 10° NNE
STARLINK-1122 4.0 19:46:51 10° WNW 19:50:50 47° SW 19:52:28 30° SSE
STARLINK-1203 3.5 19:46:44 10° WSW 19:50:56 80° SSE 19:55:09 10° ENE
USA 238 DEB 4.2 19:44:35 10° NW 19:51:43 64° NE 19:57:47 16° ESE
USA 238 4.2 19:44:42 10° NW 19:51:48 63° NE 19:57:54 16° ESE
STARLINK-1113 3.8 19:49:03 10° WNW 19:53:12 69° NNE 19:56:17 17° ESE
STARLINK-1239 3.5 19:50:03 10° WSW 19:54:12 83° SSE 19:58:22 10° ENE
Cosmos 1110 Rocket 3.9 19:51:18 18° S 19:55:09 68° ESE 20:00:18 10° NNE
STARLINK-1126 4.1 19:51:40 10° WNW 19:55:37 43° SW 19:57:05 30° SSE
STARLINK-1119 3.8 19:54:02 10° WNW 19:58:11 73° NNE 20:01:04 19° ESE
Cosmos 1842 4.0 19:57:27 29° SE 19:58:35 35° E 20:02:11 10° NNE
STARLINK-1240 3.5 19:55:03 10° WSW 19:59:12 87° SSE 20:03:22 10° ENE
STARLINK-1082 4.2 19:56:51 10° WNW 20:00:45 40° SW 20:02:03 31° S
MTI 3.7 19:59:05 10° N 20:02:15 81° WNW 20:03:28 34° SSW
STARLINK-1114 3.7 19:59:01 10° WNW 20:03:10 76° NNE 20:05:51 21° ESE
STARLINK-1216 3.6 20:00:01 10° WSW 20:04:10 88° NNW 20:08:20 10° ENE
STARLINK-1100 4.3 20:01:52 10° WNW 20:05:43 37° SW 20:06:51 31° S
Cosmos 1242 Rocket 3.8 20:07:39 25° ESE 20:08:09 26° E 20:11:14 10° NE
STARLINK-1130 (DARKSAT) 3.6 20:04:02 10° WNW 20:08:11 80° NNE 20:10:40 24° ESE
STARLINK-1237 3.6 20:04:59 10° WSW 20:09:09 84° NNW 20:13:19 10° ENE
Cosmos 1544 Rocket 4.3 20:05:09 10° N 20:09:15 39° ENE 20:10:59 27° ESE
ALOS 2 4.2 20:07:04 16° ESE 20:09:20 24° ENE 20:12:52 10° N
EXPRESS MD2 3.9 20:06:28 10° SW 20:10:13 67° SSE 20:17:56 10° ENE
STARLINK-1083 4.4 20:06:52 10° WNW 20:10:39 35° SW 20:11:36 30° S
Aureole 3 Rocket 4.5 20:05:25 10° N 20:10:50 53° ENE 20:15:15 24° SE
Cosmos 1437 Rocket 4.4 20:08:33 10° SW 20:11:54 30° WNW 20:15:18 10° N
STARLINK-1084 3.6 20:08:58 10° WNW 20:13:08 84° NNE 20:15:24 26° ESE
STARLINK-1202 3.7 20:10:00 10° WSW 20:14:09 80° NNW 20:18:19 10° ENE
Cosmos 1900 4.4 20:10:02 10° NW 20:15:05 80° NE 20:17:44 29° SE
Cosmos 1331 Rocket 3.9 20:12:10 19° SSW 20:15:58 90° ESE 20:21:12 10° NNE
STARLINK-1098 3.5 20:13:57 10° WNW 20:18:07 89° NNE 20:20:11 29° ESE
Cosmos 1302 Rocket 4.2 20:20:13 30° S 20:22:43 57° ESE 20:27:55 10° NNE
SPOT 5 4.4 20:19:10 15° SSW 20:22:48 32° W 20:27:31 10° NNW
STARLINK-1123 3.5 20:18:57 10° WNW 20:23:07 87° SSW 20:24:59 32° ESE
Okean 2 3.3 20:21:24 34° S 20:23:10 90° WNW 20:27:21 10° N
STARLINK-1246 3.8 20:19:58 10° WSW 20:24:07 72° NNW 20:28:16 10° ENE
SL-8 R/B 3.6 20:20:40 10° W 20:25:28 69° SSW 20:28:05 26° ESE
Aureole 2 Rocket 3.5 20:24:34 17° WSW 20:26:34 36° WNW 20:29:25 10° N
Cosmos 1553 Rocket 4.2 20:21:46 10° N 20:28:03 61° ENE 20:31:22 28° SSE
STARLINK-1097 3.5 20:23:55 10° WNW 20:28:05 82° SSW 20:29:45 35° SE
STARLINK-1224 3.9 20:24:58 10° WSW 20:29:05 69° NNW 20:33:14 10° ENE
Cosmos 2026 Rocket 4.0 20:27:03 26° S 20:30:52 84° E 20:37:14 10° N
Cosmos 1271 Rocket 3.5 20:32:02 33° ESE 20:32:37 36° E 20:36:13 10° NNE
STARLINK-1099 3.5 20:28:55 10° WNW 20:33:05 78° SSW 20:34:33 39° SE
Cosmos 1766 4.1 20:29:30 10° NNW 20:33:18 43° W 20:34:51 29° SW
STARLINK-1225 4.0 20:29:58 10° WSW 20:34:05 66° NNW 20:38:13 10° ENE
Cosmos 1733 3.7 20:31:12 10° NNW 20:34:55 52° W 20:36:08 36° SSW
USA 215 3.2 20:31:06 17° ESE 20:36:23 88° NE 20:42:58 10° NW
STARLINK-1104 3.5 20:33:52 10° WNW 20:38:01 73° SSW 20:39:18 42° SE
SWAS 4.4 20:34:39 10° NNW 20:38:58 84° WSW 20:40:23 42° SSE
STARLINK-1230 4.0 20:34:57 10° W 20:39:03 63° NNW 20:43:12 10° ENE
Cosmos 1975 Rocket 3.2 20:37:20 30° SSW 20:39:27 70° WNW 20:43:53 10° N
Cosmos 1707 3.4 20:40:35 35° ESE 20:41:12 38° E 20:44:51 10° NNE
STARLINK-1144 3.5 20:38:53 10° WNW 20:43:01 68° SSW 20:44:06 45° SE
STARLINK-1243 4.1 20:39:58 10° W 20:44:03 61° NNW 20:48:11 10° ENE
NOSS 2-2 (D) 3.3 20:42:58 24° SW 20:45:00 74° NW 20:49:07 10° NE
STARLINK-1103 3.6 20:43:52 10° WNW 20:47:58 64° SSW 20:48:53 48° SSE
SL-27 R/B 2.4 20:45:03 10° NNW 20:48:40 79° WSW 20:49:14 60° S
STARLINK-1236 4.2 20:44:58 10° W 20:49:04 58° NNW 20:53:11 10° ENE
NOSS 3-2 (C) 4.1 20:42:01 10° NW 20:49:29 84° NE 20:55:22 22° SE
Helios 1A 4.2 20:48:16 24° ESE 20:49:56 32° ENE 20:53:41 10° N
Thor Agena Rocket 3.6 20:44:44 10° NNE 20:50:04 82° WNW 20:52:55 28° SSW
Cosmos 1340 Rocket 4.0 20:46:28 10° N 20:50:10 33° ENE 20:51:26 27° ESE
Abrixas rocket 3.9 20:48:03 10° W 20:49:17 20° W 20:49:17 20° W
Cosmos 1953 3.0 20:48:58 10° N 20:52:48 43° ENE 20:53:50 35° ESE
STARLINK-1101 3.6 20:48:51 10° WNW 20:52:56 60° SSW 20:53:40 50° SSE
COSMOS 2455 4.0 20:56:13 24° SE 20:57:31 26° ESE 21:02:23 10° NE
SL-4 R/B 2.4 20:58:25 31° N 20:58:25 31° N 20:59:46 10° N
ATLAS 3B R/B 3.4 20:51:21 10° NW 20:57:54 50° NE 21:04:39 10° ESE
STARLINK-1102 3.7 20:53:51 10° WNW 20:57:55 55° SSW 20:58:27 51° S
Cosmos 2082 Rocket 4.4 20:56:04 10° WNW 20:58:44 14° W 21:01:24 10° SW
CENTAUR R/B 3.2 20:50:58 10° NW 20:58:57 84° NE 21:05:20 21° SE
STARLINK-1269 4.3 20:54:58 10° W 20:59:02 54° NNW 21:03:07 10° ENE
COSMOS 2487 4.1 20:56:35 10° N 20:59:34 26° ENE 21:00:38 22° E
NOSS 3-4 (A) 4.0 20:58:30 32° SSE 21:00:07 37° ESE 21:05:48 10° NE
NOSS 3-4 (C) 4.0 20:58:37 32° SSE 21:00:12 37° ESE 21:05:54 10° NE
Cosmos 292 Rocket 3.7 20:59:22 40° S 21:01:06 73° ESE 21:05:57 10° NNE
Cosmos 2266 Rocket 4.4 20:58:33 30° SE 21:01:11 48° E 21:06:59 10° NNE
STARLINK-1111 3.7 20:58:50 10° WNW 21:02:52 52° SW 21:03:13 50° SSW
NOSS 2-2 (E) 4.4 20:59:56 10° WSW 21:03:24 43° NW 21:07:31 10° NNE
Cosmos 1758 3.3 20:59:49 10° NNW 21:03:52 75° W 21:04:50 50° SSW
STARLINK-1200 4.4 21:00:00 10° W 21:04:03 53° NNW 21:08:08 10° ENE
Nimbus 7 Rocket 4.5 20:58:22 10° NNE 21:04:27 71° ESE 21:07:18 33° S
STARLINK-1212 4.1 21:02:57 10° WNW 21:05:57 42° NNE 21:07:57 18° ENE
ATLAS 5 CENTAUR R/B 2.2 21:07:13 36° E 21:07:13 36° E 21:08:42 10° ENE
STARLINK-1105 4.1 21:03:26 10° WNW 21:06:26 42° NNE 21:08:23 18° ENE
STARLINK-1247 4.1 21:04:18 10° WNW 21:07:18 42° NNE 21:09:18 18° E
EO 1 Del DPAF 4.0 21:03:59 10° N 21:07:38 47° WNW 21:09:01 31° WSW
STARLINK-1227 4.0 21:04:47 10° WNW 21:07:47 42° NNE 21:09:41 19° ENE
STARLINK-1073 3.8 21:03:49 10° WNW 21:07:49 48° SW 21:08:00 47° SSW
STARLINK-1226 4.0 21:05:40 10° WNW 21:08:41 43° NNE 21:10:36 19° E
STARLINK-1192 4.5 21:05:01 10° W 21:09:04 51° NNW 21:13:08 10° ENE
STARLINK-1215 4.0 21:06:34 10° WNW 21:09:34 43° NNE 21:11:28 19° E
STARLINK-1234 3.8 21:07:09 10° WNW 21:10:19 51° NNE 21:11:52 26° E
Cosmos 1455 Rocket 4.1 21:06:50 10° NNW 21:10:49 36° W 21:12:15 28° SW
STARLINK-1217 4.0 21:08:22 10° WNW 21:11:22 44° NNE 21:13:12 20° E
Terra 4.1 21:09:25 10° WSW 21:11:58 14° W 21:14:31 10° NW
Cosmos 1025 Rocket 2.9 21:10:59 48° S 21:12:09 90° WSW 21:16:28 10° N
STARLINK-1229 4.0 21:09:15 10° WNW 21:12:16 44° NNE 21:14:04 20° E
STARLINK-1121 4.0 21:08:50 10° WNW 21:12:47 44° SW 21:12:47 44° SW
STARLINK-1270 4.0 21:10:09 10° WNW 21:13:10 45° NNE 21:14:56 21° E
Cosmos 1943 Rocket 2.5 21:09:28 20° SW 21:13:21 64° WNW 21:18:56 10° NNE
Cosmos 2369 Rocket 2.2 21:10:40 27° SSW 21:13:51 84° WNW 21:19:32 10° NNE
SeaSat 1 3.0 21:09:44 10° NNE 21:14:35 56° NW 21:18:10 18° SW
Cosmos 1470 3.3 21:11:14 10° NNW 21:14:58 47° W 21:15:44 40° SW
STARLINK-1189 3.9 21:11:58 10° WNW 21:15:00 45° NNE 21:16:41 22° E
STARLINK-1188 3.9 21:12:52 10° WNW 21:15:54 46° NNE 21:17:32 22° E
STARLINK-1235 3.6 21:13:34 10° WNW 21:16:37 51° NNE 21:17:38 33° ENE
SL-4 R/B 3.1 21:17:24 35° SE 21:17:24 35° SE 21:21:25 10° ENE
STARLINK-1187 3.7 21:14:00 10° WNW 21:17:02 48° NNE 21:18:17 29° ENE
STARLINK-1106 4.1 21:13:49 10° WNW 21:17:33 41° SW 21:17:33 41° SW
STARLINK-1191 3.8 21:15:19 10° WNW 21:18:20 46° NNE 21:19:49 25° ENE
STARLINK-1221 3.8 21:16:13 10° WNW 21:19:14 47° NNE 21:20:41 25° ENE
STARLINK-1222 3.8 21:17:07 10° WNW 21:20:08 47° NNE 21:21:33 26° ENE
STARLINK-1214 3.8 21:18:03 10° WNW 21:21:04 48° NNE 21:22:27 26° ENE
STARLINK-1209 3.4 21:19:26 10° WNW 21:22:40 60° NNE 21:23:35 40° E
STARLINK-1112 4.3 21:18:49 10° WNW 21:22:20 37° SW 21:22:20 37° SW
Cosmos 1908 4.1 21:20:40 10° N 21:24:17 39° ENE 21:25:08 34° ESE
STARLINK-1128 4.5 21:23:51 10° WNW 21:27:08 34° WSW 21:27:08 34° WSW
Cosmos 1726 1.9 21:24:25 10° N 21:28:08 86° W 21:28:37 66° S
ATLAS 2AS CENTAUR R/B 3.1 21:23:53 28° SSW 21:28:24 65° ESE 21:36:15 10° NE
Cosmos 968 Rocket 3.9 21:31:12 10° NNW 21:36:10 48° WSW 21:37:40 37° SSW
Cosmos 1503 Rocket 4.1 21:31:21 10° NNW 21:36:37 66° WSW 21:38:26 40° S
Cosmos 2228 3.4 21:33:36 10° N 21:37:47 53° ENE 21:38:59 39° SE
KORONAS-FOTON 4.3 21:38:16 43° ESE 21:38:43 45° E 21:42:25 10° NNE
Cosmos 1536 Rocket 3.9 21:37:47 38° SW 21:39:10 55° WNW 21:43:27 10° N
FALCON 9 R/B 4.1 21:40:31 22° SE 21:40:31 22° SE 21:47:41 10° ESE
Meteor 2-15 Rocket 4.5 21:34:16 10° N 21:40:27 77° E 21:43:21 33° SSE
Landsat 4 3.6 21:38:08 10° NNE 21:41:51 65° ESE 21:42:15 59° SE
USA 238 4.5 21:35:59 10° NW 21:42:34 39° WSW 21:45:19 29° SSW
Cosmos 2315 Rocket 4.0 21:36:38 10° N 21:42:53 81° E 21:45:47 34° SSE
Cosmos 1242 Rocket 4.4 21:41:39 20° WSW 21:42:58 25° WNW 21:46:03 10° NNW
Cosmos 2292 Rocket 3.2 21:42:16 56° SSW 21:43:04 83° W 21:46:32 10° N
SJ 16-02 4.1 21:42:26 10° NNE 21:44:39 13° NE 21:46:51 10° ENE
ALOS 2 3.3 21:44:27 36° SW 21:45:27 42° W 21:49:38 10° NNW
STARLINK-1228 3.1 21:43:18 10° WNW 21:46:44 82° NNE 21:47:09 66° E
STARLINK-1205 4.5 21:43:07 10° WNW 21:47:11 50° NNE 21:51:14 10° E
Cosmos 1656 Rocket 3.7 21:48:58 33° SSW 21:51:38 83° WNW 21:57:15 10° NNE
ATLAS CENTAUR R/B 1.6 21:51:29 48° SSE 21:51:59 51° ESE 21:56:02 10° NE
STARLINK-1218 4.4 21:48:06 10° WNW 21:52:11 52° NNE 21:56:14 10° E
Cosmos 1354 Rocket 4.3 21:48:10 10° NNW 21:53:20 54° WSW 21:54:59 38° SSW
STARLINK-60 4.0 21:54:43 34° E 21:54:43 34° E 21:56:46 10° ENE
Cosmos 2058 Rocket 3.9 21:50:05 10° N 21:54:19 44° ENE 21:56:02 29° SE
Cosmos 1626 3.4 21:54:27 27° ESE 21:55:01 28° E 21:58:14 10° NNE
Meteor 2-5 Rocket 4.0 21:53:53 34° SSE 21:56:03 54° E 22:01:30 10° NNE
STARLINK-1254 4.4 21:53:06 10° WNW 21:57:11 53° NNE 22:01:15 10° E
Cosmos 1867 3.6 21:54:41 10° NW 22:00:05 63° WSW 22:01:59 39° S
Aureole 3 3.3 21:56:59 10° NNW 22:00:18 47° W 22:00:18 47° W
Cosmos 1300 3.9 21:57:30 10° N 22:01:02 34° ENE 22:02:16 27° ESE
STARLINK-1231 4.3 21:58:04 10° WNW 22:02:09 55° NNE 22:06:14 10° E
RESURS DK-1 3.3 22:01:56 32° ESE 22:02:20 32° ESE 22:06:03 10° NE
In-Cosmos 22 4.3 22:00:20 34° SW 22:02:33 64° WNW 22:07:49 10° N
STARLINK-1232 4.2 22:03:04 10° WNW 22:07:10 57° NNE 22:11:16 10° E
Cosmos 2219 4.3 22:04:31 10° NNW 22:09:53 40° NE 22:15:10 10° ESE
CZ-4 R/B 3.9 22:05:09 10° NNE 22:09:58 68° ESE 22:11:29 42° S
STARLINK-1208 4.2 22:08:03 10° WNW 22:12:10 59° NNE 22:16:16 10° E
Okean 1-7 Rocket 3.9 22:11:44 40° SSE 22:13:03 56° E 22:17:29 10° NNE
Cosmos 1606 Rocket 3.6 22:09:22 10° NNW 22:13:39 63° W 22:14:40 47° SSW
STARLINK-1271 4.1 22:13:02 10° WNW 22:17:09 62° NNE 22:21:16 10° E
Cosmos 2098 Rocket 4.4 22:13:41 31° SSW 22:17:19 75° W 22:24:50 10° N
BREEZE-M DEB (TANK) 2.3 22:12:00 10° W 22:18:17 76° N 22:20:47 10° E
SL-14 R/B 3.7 22:17:48 43° SE 22:18:33 51° E 22:22:19 10° NNE
USA 215 3.9 22:18:24 30° SSW 22:19:52 33° SW 22:25:42 10° WNW
Cosmos 2297 Rocket 3.4 22:15:27 10° NNW 22:20:47 40° NE 22:26:05 10° ESE
STARLINK-1154 4.0 22:17:59 10° WNW 22:22:07 64° NNE 22:26:15 10° ESE
STARLINK-29 3.8 22:23:19 39° E 22:23:19 39° E 22:25:39 10° ENE
Helios 1A 4.2 22:24:53 26° WSW 22:25:30 27° W 22:29:07 10° NW
Cosmos 1174 3.4 22:25:06 59° WSW 22:25:33 71° NW 22:29:18 10° NNE
Cosmos 1674 3.3 22:25:02 39° WSW 22:25:46 45° WNW 22:29:25 10° N
Cosmos 1340 Rocket 4.3 22:23:13 10° NW 22:26:27 23° W 22:27:01 23° WSW
STARLINK-1197 3.9 22:22:58 10° WNW 22:27:06 67° NNE 22:31:14 10° ESE
Meteor 1-29 3.1 22:24:00 10° NNE 22:27:21 57° E 22:27:41 54° SE
Cosmos 1953 4.2 22:26:12 10° NW 22:28:52 17° W 22:29:31 17° W
Helios 1B rocket 2.4 22:25:41 10° NNE 22:29:50 83° WNW 22:30:58 47° SSW
STARLINK-1198 3.8 22:27:58 10° WNW 22:32:07 70° NNE 22:36:15 10° ESE
COSMOS 2487 4.0 22:31:43 10° NW 22:34:08 23° W 22:34:08 23° W
STARLINK-1199 3.8 22:32:56 10° WNW 22:37:06 74° NNE 22:41:15 10° ESE
Meteor 2-21 Rocket 4.4 22:37:45 32° S 22:40:49 85° E 22:47:03 10° N
Resurs 1-4 Rocket 3.5 22:36:52 10° NE 22:41:25 28° E 22:44:30 17° SE
CZ-2D R/B 3.6 22:37:00 10° NE 22:41:27 27° E 22:44:29 16° SE
Cosmos 1455 4.3 22:38:44 10° NNE 22:41:42 22° ENE 22:44:25 11° ESE
STARLINK-1210 3.7 22:37:55 10° WNW 22:42:05 77° NNE 22:46:14 10° ESE
COSMOS 2455 3.1 22:39:19 24° SW 22:42:58 67° NW 22:49:01 10° NNE
ATLAS CENTAUR R/B 1.9 22:41:03 10° NW 22:43:23 56° NE 22:47:58 10° ESE
STARLINK-1219 3.6 22:42:53 10° WNW 22:47:03 81° NNE 22:51:12 10° ESE
ATLAS 3B R/B 3.0 22:42:10 10° NW 22:48:40 49° WSW 22:52:09 27° S
Meteor 2-14 Rocket 4.5 22:46:04 31° SSW 22:49:07 73° W 22:55:17 10° N
CENTAUR R/B 4.0 22:42:19 10° NW 22:49:14 31° WSW 22:52:28 24° SSW
Lacrosse 4 Rocket 3.9 22:46:02 10° NNW 22:49:32 23° NE 22:52:56 10° E
NOSS 3-4 (A) 4.0 22:45:54 15° WSW 22:50:46 54° NW 22:57:08 10° NE
NOSS 3-4 (C) 4.0 22:46:01 16° WSW 22:50:52 54° NW 22:57:14 10° NE
STARLINK-1211 3.6 22:47:51 10° WNW 22:52:02 85° NNE 22:56:11 10° ESE
Cosmos 1892 Rocket 4.1 22:52:46 33° SW 22:54:18 47° WNW 22:58:33 10° N
STARLINK-1338 4.3 22:55:28 31° SE 22:55:28 31° SE 22:58:30 10° ENE
GEOS 3 Rocket 3.5 22:52:18 18° SSE 22:56:10 75° SW 23:01:28 10° NW
SL-4 R/B 2.4 22:52:55 18° WSW 22:56:34 82° NNW 23:01:20 10° ENE
PSLV R/B 4.2 22:52:22 10° N 22:56:48 48° WNW 22:58:37 30° SW
STARLINK-1245 3.5 22:52:51 10° WNW 22:57:01 90° NE 23:01:10 10° ESE
Cosmos 2227 Rocket 2.7 22:51:26 10° NNW 22:57:05 61° ENE 23:02:42 10° SE
Cosmos 1697 Rocket 4.4 22:54:22 14° SE 22:57:41 23° ESE 23:01:59 10° NE
Timation 2 Rocket 4.1 22:52:05 10° NW 22:58:14 54° WSW 23:01:16 28° S
STARLINK-52 2.8 22:58:13 64° SW 22:58:39 86° SSE 23:01:52 10° ENE
Cosmos 2369 Rocket 4.3 22:54:38 10° W 22:58:45 20° NW 23:02:52 10° N
FALCON 9 DEB 3.1 22:58:58 58° S 22:59:21 64° SSE 23:02:46 10° ENE
OE (NEXTSAT) 4.4 22:59:51 53° SSE 22:59:51 53° SSE 23:03:12 10° E
STARLINK-1371 4.1 23:00:23 34° SE 23:00:23 34° SE 23:03:40 10° ENE
Starlink 7 placeholder 4.2 23:01:29 25° NNE 23:01:29 25° NNE 23:02:51 10° NE
STARLINK-1233 3.5 22:57:50 10° WNW 23:02:00 86° SSW 23:06:09 10° ESE
Cosmos 1745 Rocket 3.9 22:59:16 28° S 23:02:43 83° E 23:08:53 10° N
STARLINK-1341 4.0 23:02:51 35° SE 23:02:56 35° SE 23:06:16 10° ENE
SL-08 ROCKET BODY 4.3 22:59:56 28° S 23:03:10 81° E 23:09:02 10° N
Cosmos 2084 3.5 23:02:53 37° SSW 23:04:35 77° SE 23:09:04 10° NE
SL-16 R/B 2.8 22:59:29 14° SSE 23:04:51 69° ENE 23:11:00 10° NNW
STARLINK-1374 3.9 23:05:20 36° SSE 23:05:31 37° SE 23:08:53 10° ENE
STARLINK-1204 3.5 23:02:49 10° WNW 23:06:59 81° SSW 23:11:08 10° ESE
Meteor 2-10 Rocket 4.0 23:01:56 10° N 23:07:11 57° ENE 23:11:16 16° SSE
STARLINK-1339 3.8 23:07:51 38° SSE 23:08:07 38° SE 23:11:31 10° ENE
Cosmos 1656 4.3 23:06:55 25° S 23:09:55 48° ESE 23:15:19 10° NE
STARLINK-1377 3.8 23:09:58 38° SSE 23:10:16 39° SE 23:13:39 10° ENE
Meteor 2-1 Rocket 4.2 23:05:28 10° N 23:11:01 85° ENE 23:14:45 22° SSE
STARLINK-1203 4.5 23:07:09 10° WNW 23:11:17 52° NNE 23:15:24 10° E
STARLINK-1238 3.5 23:07:48 10° WNW 23:11:58 76° SSW 23:16:06 10° SE
STARLINK-1353 3.7 23:12:55 39° SSE 23:13:23 42° SE 23:16:49 10° ENE
Meteor 1-24 Rocket 4.1 23:11:20 26° SW 23:14:01 48° WNW 23:19:17 10° N
STARLINK-1239 4.4 23:10:02 10° WNW 23:14:06 53° NNE 23:18:10 10° E
STARLINK-1375 3.7 23:14:38 40° SSE 23:15:04 42° SE 23:18:27 10° ENE
UNK 3.9 23:12:34 20° SSE 23:15:45 71° ENE 23:20:20 10° N
STARLINK-1201 3.5 23:12:48 10° WNW 23:16:57 72° SSW 23:21:04 10° SE
SAR-Lupe-3 4.4 23:13:22 10° NNE 23:16:57 88° W 23:18:05 41° SSW
STARLINK-1350 3.6 23:17:11 41° S 23:17:43 44° SE 23:21:08 10° ENE
STARLINK-1240 4.4 23:15:03 10° WNW 23:19:09 54° NNE 23:23:13 10° E
BREEZE-M DEB (TANK) 1.0 23:18:53 47° WSW 23:19:30 90° S 23:21:47 10° ENE
Cosmos 1758 Rocket 4.4 23:17:09 21° SSE 23:19:40 44° E 23:23:51 10° NNE
ATLAS 2AS CENTAUR R/B 3.9 23:12:11 10° WSW 23:19:51 47° NW 23:27:23 10° NE
STARLINK-1352 3.6 23:19:46 41° S 23:20:25 46° SE 23:23:51 10° ENE
STARLINK-1320 3.1 23:20:35 48° SSE 23:20:49 50° SSE 23:23:50 10° ENE
STARLINK-1322 3.1 23:20:53 48° SSE 23:21:08 50° SSE 23:24:10 10° ENE
STARLINK-1324 3.0 23:21:14 48° SSE 23:21:29 50° SSE 23:24:32 10° ENE
STARLINK-1294 3.0 23:21:30 48° S 23:21:47 51° SSE 23:24:51 10° ENE
STARLINK-1206 3.5 23:17:47 10° WNW 23:21:55 67° SSW 23:26:01 10° SE
STARLINK-1261 3.0 23:21:52 49° S 23:22:09 51° SSE 23:25:12 10° ENE
STARLINK-1325 3.0 23:22:13 49° S 23:22:31 51° SSE 23:25:34 10° ENE
STARLINK-1333 3.0 23:22:33 49° S 23:22:51 52° SSE 23:25:54 10° ENE
STARLINK-1368 3.5 23:22:21 41° S 23:23:06 49° SE 23:26:33 10° ENE
STARLINK-1334 3.0 23:22:51 49° S 23:23:10 52° SSE 23:26:14 10° ENE
STARLINK-1326 3.0 23:23:11 49° S 23:23:31 52° SSE 23:26:35 10° ENE
STARLINK-1323 3.0 23:23:29 49° S 23:23:50 52° SSE 23:26:53 10° ENE
Cosmos 921 Rocket 3.6 23:22:01 27° WSW 23:23:56 46° WNW 23:28:07 10° N
SJ 16-02 1.3 23:19:30 10° NNW 23:23:58 86° ENE 23:27:10 19° SSE
SL-19 R/B 4.4 23:18:41 10° N 23:24:04 66° WNW 23:27:24 25° SW
STARLINK-1216 4.3 23:20:01 10° WNW 23:24:06 56° NNE 23:28:12 10° E
STARLINK-1349 3.0 23:23:51 49° S 23:24:13 53° SSE 23:27:16 10° ENE
STARLINK-1336 3.0 23:24:09 49° S 23:24:31 53° SSE 23:27:35 10° ENE
STARLINK-1331 3.0 23:24:31 49° S 23:24:54 54° SSE 23:27:57 10° ENE
Cosmos 1703 4.5 23:22:35 18° SSE 23:24:57 36° E 23:28:35 10° NNE
STARLINK-1344 3.0 23:24:51 49° S 23:25:14 54° SSE 23:28:18 10° ENE
STARLINK-1343 3.0 23:25:07 49° S 23:25:32 54° SSE 23:28:35 10° ENE
STARLINK-1346 3.0 23:25:26 48° S 23:25:53 55° SSE 23:28:59 10° ENE
STARLINK-1369 3.5 23:25:20 40° SSW 23:26:12 52° SSE 23:29:43 10° ENE
STARLINK-1328 3.0 23:25:47 49° S 23:26:13 55° SSE 23:29:16 10° ENE
STARLINK-1354 3.0 23:26:05 49° S 23:26:31 55° SSE 23:29:36 10° ENE
STARLINK-1347 3.0 23:26:25 49° S 23:26:53 56° SSE 23:29:57 10° ENE
STARLINK-1205 3.5 23:22:47 10° WNW 23:26:53 63° SSW 23:30:59 10° SE
STARLINK-1357 3.0 23:26:45 49° S 23:27:13 56° SSE 23:30:17 10° ENE
STARLINK-1335 3.0 23:27:08 49° S 23:27:37 56° SSE 23:30:42 10° ENE
Cosmos 1763 Rocket 4.1 23:24:41 22° S 23:27:43 48° ESE 23:32:36 10° NNE
STARLINK-1327 3.0 23:27:23 49° S 23:27:52 57° SSE 23:30:56 10° ENE
STARLINK-1340 3.0 23:27:44 48° S 23:28:14 57° SSE 23:31:19 10° ENE
STARLINK-1356 2.9 23:28:03 48° SSW 23:28:34 57° SSE 23:31:39 10° ENE
STARLINK-1345 2.9 23:28:23 48° SSW 23:28:54 58° SSE 23:31:59 10° ENE
MOZ.5/SAFIR/RUBIN 5/SL-8 3.7 23:26:30 26° S 23:29:00 67° WSW 23:33:39 10° NNW
STARLINK-1237 4.2 23:25:00 10° WNW 23:29:06 58° NNE 23:33:12 10° E
STARLINK-1355 2.9 23:28:41 48° SSW 23:29:13 58° SSE 23:32:18 10° ENE
STARLINK-1372 3.4 23:28:28 38° SSW 23:29:31 55° SSE 23:33:06 10° ENE
STARLINK-1321 2.9 23:29:03 48° SSW 23:29:36 58° SSE 23:32:41 10° ENE
STARLINK-60 4.1 23:27:06 12° W 23:29:50 41° NNW 23:32:55 10° ENE
STARLINK-1358 2.9 23:29:21 48° SSW 23:29:55 59° SSE 23:33:00 10° ENE
Cosmos 1626 3.7 23:29:00 19° W 23:30:16 23° WNW 23:33:18 10° NNW
STARLINK-1332 2.9 23:29:44 47° SSW 23:30:19 59° SSE 23:33:24 10° ENE
Cosmos 1437 3.9 23:29:48 25° W 23:30:21 27° WNW 23:33:00 10° N
STARLINK-1348 2.9 23:30:01 47° SSW 23:30:37 60° SSE 23:33:42 10° ENE
STARLINK-1330 2.9 23:30:19 47° SSW 23:30:55 60° SSE 23:34:00 10° ENE
ATLAS CENTAUR R/B 3.1 23:27:38 11° W 23:31:06 27° NW 23:34:37 10° NNE
STARLINK-1363 2.9 23:30:42 47° SSW 23:31:19 60° SSE 23:34:24 10° ENE
STARLINK-1378 3.4 23:30:16 38° SSW 23:31:20 56° SSE 23:34:53 10° ENE
STARLINK-1337 2.9 23:30:59 47° SSW 23:31:36 61° SSE 23:34:42 10° ENE
STARLINK-1218 3.6 23:27:46 10° WNW 23:31:51 58° SSW 23:35:55 10° SE
STARLINK-1342 2.9 23:31:18 47° SSW 23:31:56 61° SSE 23:35:02 10° ENE
STARLINK-1364 2.9 23:31:37 46° SSW 23:32:16 61° SSE 23:35:21 10° ENE
STARLINK-1376 2.9 23:31:58 46° SSW 23:32:38 62° SSE 23:35:44 10° ENE
STARLINK-1360 2.9 23:32:16 46° SSW 23:32:57 62° SSE 23:36:02 10° ENE
STARLINK-1361 2.9 23:32:36 46° SSW 23:33:17 63° SSE 23:36:23 10° ENE
STARLINK-1367 2.9 23:32:52 45° SSW 23:33:36 63° SSE 23:36:44 10° ENE
STARLINK-1366 2.8 23:33:18 45° SSW 23:34:01 63° SSE 23:37:07 10° ENE
STARLINK-1202 4.2 23:30:00 10° WNW 23:34:07 61° NNE 23:38:13 10° E
STARLINK-1329 3.4 23:33:22 35° SSW 23:34:38 60° SSE 23:38:15 10° ENE
STARLINK-1379 3.3 23:33:45 35° SSW 23:35:01 60° SSE 23:38:38 10° ENE
Cosmos 1300 4.3 23:33:38 10° NW 23:36:27 20° W 23:37:12 19° WSW
STARLINK-1254 3.6 23:32:45 10° WNW 23:36:49 54° SW 23:40:52 10° SE
STARLINK-1362 3.3 23:36:05 34° SW 23:37:28 63° SSE 23:41:05 10° ENE
STARLINK-1365 3.3 23:36:10 33° SW 23:37:37 65° SSE 23:41:16 10° ENE
Cosmos 2369 4.5 23:35:31 18° S 23:39:22 43° ESE 23:44:42 10° NE
STARLINK-1373 3.3 23:38:18 33° SW 23:39:42 65° SSE 23:43:18 10° ENE
RESURS DK-1 3.7 23:37:48 17° WSW 23:40:22 31° NW 23:44:05 10° NNE
Alouette 2 Rocket 3.9 23:34:10 10° NNW 23:40:30 88° W 23:43:48 18° SSE
Cosmos 192 4.4 23:37:51 26° SSW 23:40:42 78° WNW 23:45:42 10° NNE
STARLINK-1231 3.7 23:37:44 10° WNW 23:41:46 51° SW 23:45:46 10° SE
AQUA 4.1 23:37:23 10° NNE 23:42:08 62° ESE 23:45:26 19° S
STARLINK-1390 3.2 23:41:01 32° SW 23:42:32 67° SSE 23:46:09 10° ENE
CZ-4C R/B 3.8 23:41:59 26° SSW 23:44:05 51° W 23:48:23 10° NNW
STARLINK-1246 4.0 23:39:58 10° WNW 23:44:06 66° NNE 23:48:14 10° ESE
Cosmos 1626 Rocket 4.3 23:42:28 24° SW 23:44:32 40° WNW 23:48:39 10° N
STARLINK-1232 3.8 23:42:45 10° WNW 23:46:45 47° SW 23:50:43 10° SE
Cosmos 2285 Rocket 4.1 23:41:35 10° NNW 23:48:01 79° ENE 23:54:21 10° SSE
BREEZE-M R/B 2.5 23:45:16 17° WSW 23:48:45 74° SSE 23:51:38 10° ENE
STARLINK-1224 3.9 23:44:56 10° WNW 23:49:04 69° NNE 23:53:12 10° ESE
Meteor 1-21 Rocket 4.2 23:46:30 22° SSW 23:50:16 77° WNW 23:56:00 10° N
Cosmos 1980 Rocket 3.5 23:46:31 11° SSE 23:51:10 32° ESE 23:56:05 10° NE
STARLINK-1208 3.9 23:47:45 10° WNW 23:51:42 44° SW 23:55:38 10° SE
Cosmos 1709 Rocket 4.0 23:48:09 20° SSW 23:52:30 76° W 23:58:41 10° N
Cosmos 2219 3.7 23:48:48 10° NW 23:54:01 39° WSW 23:57:31 19° SSW
STARLINK-1225 3.9 23:49:55 10° WNW 23:54:04 72° NNE 23:58:12 10° ESE
ARIANE 5 R/B 4.1 23:51:16 10° NE 23:55:39 29° E 00:00:00 10° SSE
